CW4167 Weather Reports


time (UTC)temp
C
wind
direction
speed
KPH
gust
KPH
rain 1hr
cm
rain 24hr
cm
rain mn
cm
humidity
%
barometer
mb
20260507182204 11 354 4.8 8.0 0.00 0.00 0.00 61 1016.2
20260507181704 12 353 4.8 8.0 0.00 0.00 0.00 61 1016.2
20260507181205 12 353 8.0 11.3 0.00 0.00 0.00 61 1016.2
20260507180704 12 2 8.0 9.7 0.00 0.00 0.00 61 1016.2
20260507175704 12 0 9.7 11.3 0.00 0.00 0.00 60 1015.9
20260507175206 12 349 8.0 11.3 0.00 0.00 0.00 60 1015.9
20260507173204 12 347 14.5 16.1 0.00 0.00 0.00 58 1015.9
20260507172704 12 344 11.3 12.9 0.00 0.00 0.00 58 1015.9
20260507171204 13 353 16.1 22.5 0.00 0.00 0.00 55 1015.7
20260507165204 13 355 14.5 20.9 0.00 0.00 0.00 53 1015.5
20260507163706 13 334 11.3 20.9 0.00 0.00 0.00 53 1015.6
20260507162704 13 350 16.1 22.5 0.00 0.00 0.00 52 1015.6
20260507154705 14 348 14.5 22.5 0.00 0.00 0.00 52 1015.5
20260507153705 14 338 16.1 22.5 0.00 0.00 0.00 53 1015.5
20260507153204 14 333 14.5 22.5 0.00 0.00 0.00 50 1015.4
20260507152204 14 352 19.3 29.0 0.00 0.00 0.00 53 1015.2
20260507151706 14 344 17.7 24.1 0.00 0.00 0.00 52 1015.2
20260507150704 14 337 19.3 25.7 0.00 0.00 0.00 53 1015.2
20260507145204 14 353 22.5 25.7 0.00 0.00 0.00 49 1015.1
20260507144704 14 328 22.5 27.4 0.00 0.00 0.00 51 1015.2
20260507143706 14 339 22.5 27.4 0.00 0.00 0.00 51 1015.1
20260507142704 14 349 19.3 24.1 0.00 0.00 0.00 53 1015.2
20260507141204 14 352 19.3 25.7 0.00 0.00 0.00 53 1015.1
20260507140704 14 341 20.9 25.7 0.00 0.00 0.00 54 1015.1
20260507140204 14 336 16.1 25.7 0.00 0.00 0.00 53 1015.1
20260507135704 14 349 24.1 27.4 0.00 0.00 0.00 53 1015.1
20260507135204 14 355 22.5 27.4 0.00 0.00 0.00 53 1015.1
20260507134204 14 329 16.1 27.4 0.00 0.00 0.00 54 1015.1
20260507133704 14 353 27.4 29.0 0.00 0.00 0.00 54 1015.1
20260507133205 14 346 22.5 27.4 0.00 0.00 0.00 53 1015.1
20260507131704 14 343 20.9 29.0 0.00 0.00 0.00 54 1015.2
20260507125704 14 341 20.9 27.4 0.00 0.00 0.00 52 1015.0
20260507124704 14 346 22.5 29.0 0.00 0.00 0.00 56 1015.0
20260507123203 14 346 22.5 29.0 0.00 0.00 0.00 57 1014.9
20260507122705 14 336 22.5 29.0 0.00 0.00 0.00 56 1014.9
20260507121705 14 336 22.5 25.7 0.00 0.00 0.00 55 1014.9
20260507121204 14 322 24.1 29.0 0.00 0.00 0.00 55 1014.8
20260507120704 14 337 19.3 27.4 0.00 0.00 0.00 56 1014.8
20260507115706 14 337 20.9 27.4 0.00 0.00 0.00 57 1014.8
20260507113707 14 347 20.9 27.4 0.00 0.00 0.00 60 1014.7
20260507113206 14 322 17.7 25.7 0.00 0.00 0.00 62 1014.7
20260507111706 14 329 16.1 22.5 0.00 0.00 0.00 60 1014.7
20260507111206 14 336 16.1 24.1 0.00 0.00 0.00 60 1014.8
20260507105706 14 336 17.7 24.1 0.00 0.00 0.00 59 1014.8
20260507104207 13 345 11.3 24.1 0.00 0.00 0.00 55 1014.7
20260507103707 13 350 19.3 24.1 0.00 0.00 0.00 54 1014.7
20260507103206 14 350 14.5 24.1 0.00 0.00 0.00 55 1014.7
20260507102206 14 336 8.0 16.1 0.00 0.00 0.00 50 1014.7
20260507100705 13 350 14.5 20.9 0.00 0.00 0.00 49 1014.6
20260507100207 13 25 14.5 20.9 0.00 0.00 0.00 49 1014.6
20260507095705 13 13 11.3 11.3 0.00 0.00 0.00 51 1014.6
20260507094705 13 50 14.5 16.1 0.00 0.00 0.00 49 1014.5
20260507093206 14 28 9.7 14.5 0.00 0.00 0.00 50 1014.5
20260507085707 13 329 9.7 11.3 0.00 0.00 0.00 51 1014.3
20260507085205 13 353 11.3 20.9 0.00 0.00 0.00 52 1014.3
20260507084205 13 339 9.7 11.3 0.00 0.00 0.00 51 1014.2
20260507083706 12 312 9.7 12.9 0.00 0.00 0.00 51 1014.2
20260507083207 12 272 8.0 11.3 0.00 0.00 0.00 50 1014.1
20260507081706 12 339 3.2 9.7 0.00 0.00 0.00 52 1014.0
20260507080706 12 8 4.8 8.0 0.00 0.00 0.00 55 1013.8
20260507075207 12 18 6.4 8.0 0.00 0.00 0.00 59 1013.8
20260507074205 12 16 6.4 8.0 0.00 0.00 0.00 60 1013.8
20260507073205 11 0 3.2 9.7 0.00 0.00 0.00 62 1013.8
20260507071706 11 356 6.4 9.7 0.00 0.00 0.00 61 1013.7
20260507070205 11 348 3.2 8.0 0.00 0.00 0.00 67 1013.6
20260507065706 10 344 6.4 8.0 0.00 0.00 0.00 68 1013.6
20260507064205 10 356 8.0 8.0 0.00 0.00 0.00 72 1013.4
20260507063706 10 352 9.7 11.3 0.00 0.00 0.00 72 1013.4
20260507062706 10 354 4.8 9.7 0.00 0.00 0.00 74 1013.4
20260507062205 9 352 4.8 8.0 0.00 0.00 0.00 74 1013.4
20260507061705 10 344 3.2 4.8 0.00 0.00 0.00 76 1013.4
20260507061206 9 333 4.8 4.8 0.00 0.00 0.00 78 1013.4
20260507053705 7 195 0.0 3.2 0.00 0.00 0.00 90 1013.2
20260507053205 6 185 0.0 1.6 0.00 0.00 0.00 90 1013.2
20260507052205 5 154 3.2 3.2 0.00 0.00 0.00 90 1013.2
20260507051205 4 143 0.0 0.0 0.00 0.00 0.00 89 1013.1
20260507050706 4 143 0.0 0.0 0.00 0.00 0.00 89 1012.9
20260507050205 4 143 0.0 0.0 0.00 0.00 0.00 89 1012.9
20260507043705 3 143 0.0 0.0 0.00 0.00 0.00 90 1012.7
20260507042205 2 143 0.0 0.0 0.00 0.00 0.00 89 1012.7
20260507041706 1 143 0.0 0.0 0.00 0.00 0.00 89 1012.7
20260507040705 1 143 0.0 0.0 0.00 0.00 0.00 88 1012.7
20260507040205 1 143 0.0 1.6 0.00 0.00 0.00 88 1012.7
20260507034705 1 143 0.0 1.6 0.00 0.00 0.00 88 1012.5
20260507033705 1 143 0.0 0.0 0.00 0.00 0.00 88 1012.4
20260507033205 1 143 0.0 0.0 0.00 0.00 0.00 88 1012.5
20260507032705 1 143 0.0 0.0 0.00 0.00 0.00 88 1012.5
20260507031205 1 143 0.0 1.6 0.00 0.00 0.00 87 1012.4
20260507030705 1 143 0.0 0.0 0.00 0.00 0.00 87 1012.4
20260507025705 1 143 0.0 0.0 0.00 0.00 0.00 87 1012.3
20260507023705 1 143 0.0 0.0 0.00 0.00 0.00 87 1012.2
20260507023205 1 143 0.0 0.0 0.00 0.00 0.00 87 1012.2
20260507021706 1 143 0.0 0.0 0.00 0.00 0.00 87 1012.0
20260507020707 1 143 0.0 0.0 0.00 0.00 0.00 87 1012.0
20260507015706 1 143 0.0 0.0 0.00 0.00 0.00 87 1012.0
20260507013706 1 143 0.0 0.0 0.00 0.00 0.00 87 1011.8
20260507013205 1 143 0.0 0.0 0.00 0.00 0.00 87 1011.8
20260507012705 1 143 0.0 0.0 0.00 0.00 0.00 86 1011.7
20260507005705 2 143 0.0 0.0 0.00 0.00 0.00 85 1011.8
20260507003206 2 148 0.0 3.2 0.00 0.00 0.00 85 1011.7
20260507002705 2 149 0.0 3.2 0.00 0.00 0.00 85 1011.7
20260507000705 2 157 8.0 8.0 0.00 0.00 0.00 85 1011.7
20260507000207 3 157 4.8 4.8 0.00 0.00 0.00 85 1011.6
20260506235205 3 157 3.2 3.2 0.00 0.00 0.00 85 1011.6
20260506233205 3 157 4.8 4.8 0.00 0.00 0.00 84 1011.4
20260506232705 3 157 4.8 4.8 0.00 0.00 0.00 84 1011.4
20260506231705 3 157 1.6 3.2 0.00 0.00 0.00 84 1011.5
20260506231206 3 157 3.2 3.2 0.00 0.00 0.00 83 1011.5
20260506230205 3 157 0.0 0.0 0.00 0.00 0.00 83 1011.5
20260506225704 3 157 1.6 3.2 0.00 0.00 0.00 83 1011.6
20260506225205 4 157 3.2 3.2 0.00 0.00 0.00 83 1011.5
20260506222706 4 157 0.0 0.0 0.00 0.00 0.00 83 1011.4
20260506221205 5 157 3.2 3.2 0.00 0.00 0.00 82 1011.3
20260506220705 5 157 0.0 1.6 0.00 0.00 0.00 83 1011.3
20260506220205 5 157 0.0 1.6 0.00 0.00 0.00 82 1011.2
20260506215705 5 157 3.2 4.8 0.00 0.00 0.00 82 1011.1
20260506214207 5 161 3.2 4.8 0.00 0.00 0.00 82 1011.1
20260506211704 5 143 8.0 9.7 0.00 0.00 0.00 80 1011.0
20260506205205 5 139 6.4 9.7 0.00 0.00 0.00 77 1010.8
20260506204705 5 134 4.8 8.0 0.00 0.00 0.00 77 1010.7
20260506204205 5 135 4.8 8.0 0.00 0.00 0.00 76 1010.8
20260506203205 6 130 3.2 4.8 0.00 0.00 0.00 75 1010.8
20260506202205 6 130 4.8 8.0 0.00 0.00 0.00 74 1010.8
20260506201706 6 129 4.8 8.0 0.00 0.00 0.00 73 1010.6
20260506201205 6 136 4.8 8.0 0.00 0.00 0.00 72 1010.6
20260506200205 6 138 4.8 4.8 0.00 0.00 0.00 71 1010.6
20260506194704 7 139 4.8 4.8 0.00 0.00 0.00 69 1010.4
20260506194205 7 139 3.2 4.8 0.00 0.00 0.00 68 1010.4
20260506193705 7 139 8.0 8.0 0.00 0.00 0.00 68 1010.4
20260506192706 8 139 4.8 4.8 0.00 0.00 0.00 66 1010.4
20260506192205 8 139 4.8 8.0 0.00 0.00 0.00 66 1010.4
20260506191704 8 140 6.4 9.7 0.00 0.00 0.00 65 1010.3
20260506191204 8 131 8.0 9.7 0.00 0.00 0.00 64 1010.3
20260506190705 8 128 6.4 9.7 0.00 0.00 0.00 63 1010.1
20260506185704 9 125 6.4 9.7 0.00 0.00 0.00 62 1010.1
20260506183704 9 126 9.7 12.9 0.00 0.00 0.00 59 1009.9
20260506182704 10 121 11.3 16.1 0.00 0.00 0.00 58 1009.9